Time,TemperatureF,DewpointF,PressureIn,WindDirection,WindDirectionDegrees,WindSpeedMPH,WindSpeedGustMPH,Humidity,HourlyPrecipIn,Conditions,Clouds,dailyrainin,SolarRadiationWatts/m^2,SoftwareType,DateUTC
2013-08-22 00:01:00,62.1,60.7,30.03,SSE,150,0.0,0.0,95,0.00,CLR,,0.00,0.0,WeatherDisplay:10.37,2013-08-22 04:01:00,
2013-08-22 00:02:00,62.1,60.7,30.03,SSE,150,0.0,0.0,95,0.00,CLR,,0.00,0.0,WeatherDisplay:10.37,2013-08-22 04:02:00,
2013-08-22 00:07:00,62.0,60.6,30.03,SSE,150,0.0,0.0,95,0.00,CLR,,0.00,0.0,WeatherDisplay:10.37,2013-08-22 04:07:00,
2013-08-22 00:12:00,61.8,60.4,30.03,SSE,150,0.0,0.0,95,0.00,CLR,,0.00,0.0,WeatherDisplay:10.37,2013-08-22 04:12:00,
2013-08-22 00:17:00,61.6,60.2,30.03,SSE,150,0.0,0.0,95,0.00,CLR,,0.00,0.0,WeatherDisplay:10.37,2013-08-22 04:17:00,
2013-08-22 00:22:00,61.5,60.1,30.03,SSE,150,0.0,0.0,95,0.00,CLR,,0.00,0.0,WeatherDisplay:10.37,2013-08-22 04:22:00,
2013-08-22 00:27:00,61.3,59.9,30.03,SSE,150,0.0,0.0,95,0.00,CLR,,0.00,0.0,WeatherDisplay:10.37,2013-08-22 04:27:00,
2013-08-22 00:32:00,61.3,59.9,30.03,SSE,150,0.0,0.0,95,0.00,CLR,,0.00,0.0,WeatherDisplay:10.37,2013-08-22 04:32:00,
2013-08-22 00:37:00,61.2,59.8,30.03,SSE,150,0.0,0.0,95,0.00,CLR,,0.00,0.0,WeatherDisplay:10.37,2013-08-22 04:37:00,
2013-08-22 00:42:00,61.2,59.8,30.03,SSE,150,0.0,0.0,95,0.00,CLR,,0.00,0.0,WeatherDisplay:10.37,2013-08-22 04:42:00,
2013-08-22 00:47:00,61.2,59.8,30.03,SSE,150,0.0,0.0,95,0.00,CLR,,0.00,0.0,WeatherDisplay:10.37,2013-08-22 04:47:00,
2013-08-22 00:52:00,61.0,59.6,30.03,SSE,150,0.0,0.0,95,0.00,CLR,,0.00,0.0,WeatherDisplay:10.37,2013-08-22 04:52:00,
2013-08-22 00:57:00,60.9,59.5,30.03,SSE,150,0.0,0.0,95,0.00,CLR,,0.00,0.0,WeatherDisplay:10.37,2013-08-22 04:57:00,
2013-08-22 01:02:00,60.9,59.5,30.03,SSE,150,0.0,0.0,95,0.00,CLR,,0.00,0.0,WeatherDisplay:10.37,2013-08-22 05:02:00,
2013-08-22 01:07:00,60.7,59.3,30.03,SSE,150,0.0,0.0,95,0.00,CLR,,0.00,0.0,WeatherDisplay:10.37,2013-08-22 05:07:00,
2013-08-22 01:12:00,60.7,59.6,30.03,SSE,150,0.0,0.0,96,0.00,CLR,,0.00,0.0,WeatherDisplay:10.37,2013-08-22 05:12:00,
2013-08-22 01:17:00,60.7,59.3,30.03,SSE,150,0.0,0.0,95,0.00,CLR,,0.00,0.0,WeatherDisplay:10.37,2013-08-22 05:17:00,
2013-08-22 01:22:00,60.7,59.6,30.03,East,95,2.3,0.0,96,0.00,CLR,,0.00,0.0,WeatherDisplay:10.37,2013-08-22 05:22:00,
2013-08-22 01:27:00,60.5,59.4,30.03,East,95,0.0,0.0,96,0.00,CLR,,0.00,0.0,WeatherDisplay:10.37,2013-08-22 05:27:00,
2013-08-22 01:32:00,60.4,59.3,30.03,East,95,0.0,0.0,96,0.00,CLR,,0.00,0.0,WeatherDisplay:10.37,2013-08-22 05:32:00,
2013-08-22 01:37:00,60.4,59.3,30.03,East,95,0.0,0.0,96,0.00,CLR,,0.00,0.0,WeatherDisplay:10.37,2013-08-22 05:37:00,
2013-08-22 01:42:00,60.4,59.3,30.03,East,95,0.0,0.0,96,0.00,CLR,,0.00,0.0,WeatherDisplay:10.37,2013-08-22 05:42:00,
2013-08-22 01:47:00,60.4,59.3,30.03,East,95,0.0,0.0,96,0.00,CLR,,0.00,0.0,WeatherDisplay:10.37,2013-08-22 05:47:00,
2013-08-22 01:52:00,60.4,59.3,30.03,East,95,0.0,0.0,96,0.00,CLR,,0.00,0.0,WeatherDisplay:10.37,2013-08-22 05:52:00,
2013-08-22 01:57:00,60.4,59.3,30.03,East,95,0.0,0.0,96,0.00,CLR,,0.00,0.0,WeatherDisplay:10.37,2013-08-22 05:57:00,
2013-08-22 02:02:00,60.4,59.3,30.03,East,95,0.0,0.0,96,0.00,CLR,,0.00,0.0,WeatherDisplay:10.37,2013-08-22 06:02:00,
2013-08-22 02:07:00,60.4,59.3,30.03,East,96,0.0,0.0,96,0.00,CLR,,0.00,0.0,WeatherDisplay:10.37,2013-08-22 06:07:00,
2013-08-22 02:12:00,60.2,59.1,30.03,East,97,0.0,0.0,96,0.00,CLR,,0.00,0.0,WeatherDisplay:10.37,2013-08-22 06:12:00,
2013-08-22 02:17:00,60.2,59.1,30.03,East,97,0.0,0.0,96,0.00,CLR,,0.00,0.0,WeatherDisplay:10.37,2013-08-22 06:17:00,
2013-08-22 02:22:00,60.1,59.0,30.03,East,96,0.0,0.0,96,0.00,CLR,,0.00,0.0,WeatherDisplay:10.37,2013-08-22 06:22:00,
2013-08-22 02:27:00,60.1,59.0,30.03,East,96,0.0,0.0,96,0.00,CLR,,0.00,0.0,WeatherDisplay:10.37,2013-08-22 06:27:00,
2013-08-22 02:32:00,59.9,58.8,30.03,East,96,0.0,0.0,96,0.00,CLR,,0.00,0.0,WeatherDisplay:10.37,2013-08-22 06:32:00,
2013-08-22 02:37:00,59.9,58.8,30.03,East,97,0.0,0.0,96,0.00,CLR,,0.00,0.0,WeatherDisplay:10.37,2013-08-22 06:37:00,
2013-08-22 02:42:00,59.9,58.8,30.03,East,96,0.0,0.0,96,0.00,CLR,,0.00,0.0,WeatherDisplay:10.37,2013-08-22 06:42:00,
2013-08-22 02:47:00,59.8,58.7,30.03,East,96,0.0,0.0,96,0.00,CLR,,0.00,0.0,WeatherDisplay:10.37,2013-08-22 06:47:00,
2013-08-22 02:52:00,59.8,58.7,30.03,East,96,0.0,0.0,96,0.00,CLR,,0.00,0.0,WeatherDisplay:10.37,2013-08-22 06:52:00,
2013-08-22 02:57:00,59.8,58.7,30.03,East,97,0.0,0.0,96,0.00,CLR,,0.00,0.0,WeatherDisplay:10.37,2013-08-22 06:57:00,
2013-08-22 03:02:00,59.8,58.7,30.03,East,96,0.0,0.0,96,0.00,CLR,,0.00,0.0,WeatherDisplay:10.37,2013-08-22 07:02:00,
2013-08-22 03:07:00,59.6,58.5,30.03,East,97,0.0,0.0,96,0.00,CLR,,0.00,0.0,WeatherDisplay:10.37,2013-08-22 07:07:00,
2013-08-22 03:12:00,59.6,58.5,30.02,East,97,0.0,0.0,96,0.00,CLR,,0.00,0.0,WeatherDisplay:10.37,2013-08-22 07:12:00,
2013-08-22 03:19:00,59.6,58.5,30.02,East,97,0.0,0.0,96,0.00,CLR,,0.00,0.0,WeatherDisplay:10.37,2013-08-22 07:19:00,
2013-08-22 03:24:00,59.5,58.4,30.02,East,97,0.0,0.0,96,0.00,CLR,,0.00,0.0,WeatherDisplay:10.37,2013-08-22 07:24:00,
2013-08-22 03:29:00,59.3,58.2,30.02,East,97,0.0,0.0,96,0.00,CLR,,0.00,0.0,WeatherDisplay:10.37,2013-08-22 07:29:00,
2013-08-22 03:34:00,59.2,58.1,30.02,East,96,0.0,0.0,96,0.00,CLR,,0.00,0.0,WeatherDisplay:10.37,2013-08-22 07:34:00,
2013-08-22 03:39:00,59.5,58.4,30.02,East,97,0.0,0.0,96,0.00,CLR,,0.00,0.0,WeatherDisplay:10.37,2013-08-22 07:39:00,
2013-08-22 03:44:00,59.5,58.4,30.01,East,97,0.0,0.0,96,0.00,CLR,,0.00,0.0,WeatherDisplay:10.37,2013-08-22 07:44:00,
2013-08-22 03:49:00,59.5,58.4,30.01,East,96,0.0,0.0,96,0.00,CLR,,0.00,0.0,WeatherDisplay:10.37,2013-08-22 07:49:00,
2013-08-22 03:54:00,59.3,58.2,30.01,East,97,0.0,0.0,96,0.00,CLR,,0.00,0.0,WeatherDisplay:10.37,2013-08-22 07:54:00,
2013-08-22 03:59:00,59.2,58.1,30.01,East,97,0.0,0.0,96,0.00,CLR,,0.00,0.0,WeatherDisplay:10.37,2013-08-22 07:59:00,
2013-08-22 04:04:00,59.2,58.1,30.01,East,97,0.0,0.0,96,0.00,CLR,,0.00,0.0,WeatherDisplay:10.37,2013-08-22 08:04:00,
2013-08-22 04:09:00,59.0,57.9,30.01,East,97,0.0,0.0,96,0.00,CLR,,0.00,0.0,WeatherDisplay:10.37,2013-08-22 08:09:00,
2013-08-22 04:14:00,59.0,57.9,30.00,East,96,1.2,0.0,96,0.00,CLR,,0.00,0.0,WeatherDisplay:10.37,2013-08-22 08:14:00,
2013-08-22 04:19:00,59.0,57.9,30.00,East,96,0.0,0.0,96,0.00,CLR,,0.00,0.0,WeatherDisplay:10.37,2013-08-22 08:19:00,
2013-08-22 04:24:00,59.0,57.9,30.00,East,96,0.0,0.0,96,0.00,CLR,,0.00,0.0,WeatherDisplay:10.37,2013-08-22 08:24:00,
2013-08-22 04:29:00,59.0,57.9,30.00,East,96,0.0,0.0,96,0.00,CLR,,0.00,0.0,WeatherDisplay:10.37,2013-08-22 08:29:00,
2013-08-22 04:34:00,58.9,57.8,30.00,East,96,0.0,0.0,96,0.00,CLR,,0.00,0.0,WeatherDisplay:10.37,2013-08-22 08:34:00,
2013-08-22 04:39:00,59.0,57.9,30.00,ESE,118,0.0,0.0,96,0.00,CLR,,0.00,0.0,WeatherDisplay:10.37,2013-08-22 08:39:00,
2013-08-22 04:44:00,58.9,57.8,29.99,ESE,123,0.0,0.0,96,0.00,CLR,,0.00,0.0,WeatherDisplay:10.37,2013-08-22 08:44:00,
2013-08-22 04:49:00,58.7,57.6,29.99,SE,125,0.0,0.0,96,0.00,CLR,,0.00,0.0,WeatherDisplay:10.37,2013-08-22 08:49:00,
2013-08-22 04:54:00,58.7,57.6,29.99,SE,125,0.0,0.0,96,0.00,CLR,,0.00,0.0,WeatherDisplay:10.37,2013-08-22 08:54:00,
2013-08-22 04:59:00,58.6,57.5,29.98,SE,125,0.0,0.0,96,0.00,CLR,,0.00,0.0,WeatherDisplay:10.37,2013-08-22 08:59:00,
2013-08-22 05:04:00,58.6,57.5,29.98,SE,125,0.0,0.0,96,0.00,CLR,,0.00,0.0,WeatherDisplay:10.37,2013-08-22 09:04:00,
2013-08-22 05:09:00,58.9,57.8,29.98,SE,125,0.0,0.0,96,0.00,CLR,,0.00,0.0,WeatherDisplay:10.37,2013-08-22 09:09:00,
2013-08-22 05:14:00,58.7,57.6,29.98,SE,125,0.0,0.0,96,0.00,CLR,,0.00,0.0,WeatherDisplay:10.37,2013-08-22 09:14:00,
2013-08-22 05:19:00,58.7,57.6,29.98,SE,125,0.0,0.0,96,0.00,CLR,,0.00,0.0,WeatherDisplay:10.37,2013-08-22 09:19:00,
2013-08-22 05:24:00,58.6,57.5,29.98,SE,125,0.0,0.0,96,0.00,CLR,,0.00,0.0,WeatherDisplay:10.37,2013-08-22 09:24:00,
2013-08-22 05:29:00,58.4,57.3,29.98,SE,125,0.0,0.0,96,0.00,CLR,,0.00,0.0,WeatherDisplay:10.37,2013-08-22 09:29:00,
2013-08-22 05:34:00,58.1,57.0,29.98,SE,125,0.0,0.0,96,0.00,CLR,,0.00,0.0,WeatherDisplay:10.37,2013-08-22 09:34:00,
2013-08-22 05:39:00,58.3,57.2,29.98,SE,125,1.0,1.0,96,0.00,CLR,,0.00,0.0,WeatherDisplay:10.37,2013-08-22 09:39:00,
2013-08-22 05:44:00,58.1,57.0,29.98,SE,146,2.0,2.0,96,0.00,CLR,,0.00,0.0,WeatherDisplay:10.37,2013-08-22 09:44:00,
2013-08-22 05:49:00,58.0,56.9,29.98,SE,146,0.0,0.0,96,0.00,CLR,,0.00,0.0,WeatherDisplay:10.37,2013-08-22 09:49:00,
2013-08-22 05:54:00,58.0,56.9,29.98,SE,146,0.0,0.0,96,0.00,CLR,,0.00,0.0,WeatherDisplay:10.37,2013-08-22 09:54:00,
2013-08-22 05:59:00,58.0,56.9,29.97,SE,146,1.2,0.0,96,0.00,CLR,,0.00,0.0,WeatherDisplay:10.37,2013-08-22 09:59:00,
2013-08-22 06:04:00,58.0,56.9,29.97,SSE,155,0.0,0.0,96,0.00,CLR,,0.00,0.0,WeatherDisplay:10.37,2013-08-22 10:04:00,
2013-08-22 06:09:00,57.6,56.5,29.97,SE,135,3.0,3.0,96,0.00,CLR,,0.00,0.0,WeatherDisplay:10.37,2013-08-22 10:09:00,
2013-08-22 06:14:00,57.6,56.5,29.97,SSE,158,1.2,1.2,96,0.00,CLR,,0.00,0.0,WeatherDisplay:10.37,2013-08-22 10:14:00,
2013-08-22 06:19:00,57.6,56.5,29.97,SSE,158,0.0,0.0,96,0.00,CLR,,0.00,0.0,WeatherDisplay:10.37,2013-08-22 10:19:00,
2013-08-22 06:24:00,57.8,57.0,29.97,SSE,158,0.0,0.0,97,0.00,CLR,,0.00,5.0,WeatherDisplay:10.37,2013-08-22 10:24:00,
2013-08-22 06:29:00,58.3,57.5,29.98,SSE,158,0.0,0.0,97,0.00,CLR,,0.00,7.0,WeatherDisplay:10.37,2013-08-22 10:29:00,
2013-08-22 06:34:00,58.3,57.2,29.98,SSE,158,0.0,0.0,96,0.00,CLR,,0.00,11.0,WeatherDisplay:10.37,2013-08-22 10:34:00,
2013-08-22 06:39:00,58.1,57.0,29.98,SSE,158,0.0,0.0,96,0.00,CLR,,0.00,18.0,WeatherDisplay:10.37,2013-08-22 10:39:00,
2013-08-22 06:44:00,58.3,57.2,29.98,SSE,158,0.0,0.0,96,0.00,CLR,,0.00,21.0,WeatherDisplay:10.37,2013-08-22 10:44:00,
2013-08-22 06:49:00,58.3,57.2,29.98,SSE,158,1.0,0.0,96,0.00,CLR,,0.00,26.0,WeatherDisplay:10.37,2013-08-22 10:49:00,
2013-08-22 08:27:00,66.8,64.7,29.99,ESE,120,0.0,0.0,93,0.00,BKN,,0.00,262.0,WeatherDisplay:10.37,2013-08-22 12:27:00,
2013-08-22 08:33:00,67.6,64.9,29.99,ESE,108,0.0,0.0,91,0.00,BKN,,0.00,285.0,WeatherDisplay:10.37,2013-08-22 12:33:00,
2013-08-22 08:38:00,68.3,64.9,29.99,East,98,5.0,5.0,89,0.00,BKN,,0.00,304.0,WeatherDisplay:10.37,2013-08-22 12:38:00,
2013-08-22 08:43:00,68.9,64.5,29.99,East,91,1.2,0.0,86,0.00,BKN,,0.00,323.0,WeatherDisplay:10.37,2013-08-22 12:43:00,
2013-08-22 08:48:00,70.1,65.0,29.99,East,91,0.0,0.0,84,0.00,BKN,,0.00,343.0,WeatherDisplay:10.37,2013-08-22 12:48:00,
2013-08-22 08:53:00,70.9,65.1,29.99,East,91,2.3,2.3,82,0.00,BKN,,0.00,352.0,WeatherDisplay:10.37,2013-08-22 12:53:00,
2013-08-22 08:58:00,72.0,64.8,29.98,East,91,2.3,2.3,78,0.00,BKN,,0.00,367.0,WeatherDisplay:10.37,2013-08-22 12:58:00,
2013-08-22 09:01:00,72.7,64.7,29.98,East,91,0.0,0.0,76,0.00,BKN,,0.00,374.0,WeatherDisplay:10.37,2013-08-22 13:01:00,
2013-08-22 09:06:00,73.5,65.5,29.98,East,90,2.0,2.0,76,0.00,BKN,,0.00,388.0,WeatherDisplay:10.37,2013-08-22 13:06:00,
2013-08-22 09:11:00,73.5,64.7,29.98,NE,52,3.5,3.5,74,0.00,BKN,,0.00,410.0,WeatherDisplay:10.37,2013-08-22 13:11:00,
2013-08-22 09:16:00,74.0,65.6,29.98,NE,52,1.2,1.2,75,0.00,BKN,,0.00,425.0,WeatherDisplay:10.37,2013-08-22 13:16:00,
2013-08-22 09:21:00,74.9,66.4,29.98,NE,52,1.2,1.2,75,0.00,BKN,,0.00,432.0,WeatherDisplay:10.37,2013-08-22 13:21:00,
2013-08-22 09:26:00,75.3,65.6,29.98,NE,52,2.3,2.3,72,0.00,BKN,,0.00,446.0,WeatherDisplay:10.37,2013-08-22 13:26:00,
2013-08-22 09:31:00,75.4,65.7,29.98,NE,54,3.5,3.5,72,0.00,BKN,,0.00,455.0,WeatherDisplay:10.37,2013-08-22 13:31:00,
2013-08-22 09:36:00,76.1,66.4,29.98,NE,55,1.2,1.2,72,0.00,BKN,,0.00,475.0,WeatherDisplay:10.37,2013-08-22 13:36:00,
2013-08-22 09:41:00,76.3,66.2,29.97,NE,56,2.3,2.3,71,0.00,SCT,,0.00,497.0,WeatherDisplay:10.37,2013-08-22 13:41:00,
2013-08-22 09:46:00,76.5,66.0,29.97,NE,54,2.3,2.3,70,0.00,SCT,,0.00,508.0,WeatherDisplay:10.37,2013-08-22 13:46:00,
2013-08-22 09:51:00,77.0,66.9,29.97,NE,55,4.0,4.0,71,0.00,SCT,,0.00,515.0,WeatherDisplay:10.37,2013-08-22 13:51:00,
2013-08-22 09:56:00,77.9,67.3,29.97,ESE,104,2.3,2.3,70,0.00,SCT,,0.00,534.0,WeatherDisplay:10.37,2013-08-22 13:56:00,
2013-08-22 10:01:00,78.3,66.4,29.97,SSE,148,2.3,2.3,67,0.00,SCT,,0.00,552.0,WeatherDisplay:10.37,2013-08-22 14:01:00,
2013-08-22 10:06:00,78.5,67.1,29.97,SSE,156,1.2,1.2,68,0.00,SCT,,0.00,561.0,WeatherDisplay:10.37,2013-08-22 14:06:00,
2013-08-22 10:11:00,79.0,68.0,29.97,SW,236,2.3,2.3,69,0.00,SCT,,0.00,575.0,WeatherDisplay:10.37,2013-08-22 14:11:00,
2013-08-22 10:16:00,79.9,68.0,29.97,East,90,1.2,1.2,67,0.00,SCT,,0.00,584.0,WeatherDisplay:10.37,2013-08-22 14:16:00,
2013-08-22 10:21:00,80.5,68.1,29.97,West,262,0.0,0.0,66,0.00,SCT,,0.00,591.0,WeatherDisplay:10.37,2013-08-22 14:21:00,
2013-08-22 10:26:00,81.8,69.3,29.97,WSW,252,1.2,1.2,66,0.00,SCT,,0.00,605.0,WeatherDisplay:10.37,2013-08-22 14:26:00,
2013-08-22 10:31:00,81.8,67.5,29.97,NW,304,6.0,6.0,62,0.00,SCT,,0.00,619.0,WeatherDisplay:10.37,2013-08-22 14:31:00,
2013-08-22 10:36:00,82.4,69.4,29.97,WNW,301,0.0,0.0,65,0.00,SCT,,0.00,628.0,WeatherDisplay:10.37,2013-08-22 14:36:00,
2013-08-22 10:41:00,82.6,68.7,29.97,NW,315,9.2,9.2,63,0.00,SCT,,0.00,633.0,WeatherDisplay:10.37,2013-08-22 14:41:00,
2013-08-22 10:46:00,82.6,66.8,29.97,NW,307,11.5,11.5,59,0.00,SCT,,0.00,640.0,WeatherDisplay:10.37,2013-08-22 14:46:00,
2013-08-22 10:51:00,82.8,67.5,29.97,WNW,286,4.0,4.0,60,0.00,SCT,,0.00,661.0,WeatherDisplay:10.37,2013-08-22 14:51:00,
2013-08-22 10:56:00,82.6,67.3,29.97,WSW,254,6.0,6.0,60,0.00,SCT,,0.00,668.0,WeatherDisplay:10.37,2013-08-22 14:56:00,
2013-08-22 11:01:00,83.0,68.2,29.97,West,274,11.5,11.5,61,0.00,FEW,,0.00,733.0,WeatherDisplay:10.37,2013-08-22 15:01:00,
2013-08-22 11:06:00,83.0,67.7,29.97,SW,221,7.0,7.0,60,0.00,BKN,,0.00,397.0,WeatherDisplay:10.37,2013-08-22 15:06:00,
2013-08-22 11:11:00,82.6,68.3,29.97,WNW,300,4.0,4.0,62,0.00,SCT,,0.00,496.0,WeatherDisplay:10.37,2013-08-22 15:11:00,
2013-08-22 11:16:00,82.4,67.1,29.97,WNW,285,7.0,7.0,60,0.00,SCT,,0.00,712.0,WeatherDisplay:10.37,2013-08-22 15:16:00,
2013-08-22 11:21:00,83.0,69.1,29.97,SW,234,6.0,6.0,63,0.00,FEW,,0.00,705.0,WeatherDisplay:10.37,2013-08-22 15:21:00,
2013-08-22 11:26:00,83.2,67.4,29.97,WSW,253,4.0,4.0,59,0.00,FEW,,0.00,726.0,WeatherDisplay:10.37,2013-08-22 15:26:00,
2013-08-22 11:31:00,83.6,69.2,29.97,WNW,290,6.9,6.9,62,0.00,FEW,,0.00,715.0,WeatherDisplay:10.37,2013-08-22 15:31:00,
2013-08-22 11:36:00,83.6,67.8,29.97,SSW,208,4.0,4.0,59,0.00,FEW,,0.00,728.0,WeatherDisplay:10.37,2013-08-22 15:36:00,
2013-08-22 11:41:00,83.8,69.9,29.96,West,270,1.2,0.0,63,0.00,FEW,,0.00,731.0,WeatherDisplay:10.37,2013-08-22 15:41:00,
2013-08-22 11:46:00,83.8,69.4,29.96,NW,319,1.2,0.0,62,0.00,FEW,,0.00,754.0,WeatherDisplay:10.37,2013-08-22 15:46:00,
2013-08-22 11:51:00,84.0,67.6,29.96,NE,34,1.2,0.0,58,0.00,FEW,,0.00,754.0,WeatherDisplay:10.37,2013-08-22 15:51:00,
2013-08-22 11:56:00,84.1,68.2,29.95,SW,225,3.5,3.5,59,0.00,FEW,,0.00,765.0,WeatherDisplay:10.37,2013-08-22 15:56:00,
2013-08-22 12:01:00,84.5,70.5,29.95,WSW,251,6.0,6.0,63,0.00,FEW,,0.00,770.0,WeatherDisplay:10.37,2013-08-22 16:01:00,
2013-08-22 12:06:00,84.9,68.5,29.95,West,260,1.2,1.2,58,0.00,FEW,,0.00,791.0,WeatherDisplay:10.37,2013-08-22 16:06:00,
2013-08-22 12:11:00,85.1,68.2,29.94,WNW,287,3.5,3.5,57,0.00,FEW,,0.00,803.0,WeatherDisplay:10.37,2013-08-22 16:11:00,
2013-08-22 12:16:00,85.1,69.7,29.94,South,191,7.0,7.0,60,0.00,CLR,,0.00,902.0,WeatherDisplay:10.37,2013-08-22 16:16:00,
2013-08-22 12:21:00,84.9,69.0,29.94,West,268,4.0,4.0,59,0.00,CLR,,0.00,889.0,WeatherDisplay:10.37,2013-08-22 16:21:00,
2013-08-22 12:26:00,84.7,66.7,29.94,West,259,10.4,10.4,55,0.00,BKN,,0.00,520.0,WeatherDisplay:10.37,2013-08-22 16:26:00,
2013-08-22 12:31:00,84.3,67.9,29.94,West,262,2.3,2.3,58,0.00,BKN,,0.00,881.0,WeatherDisplay:10.37,2013-08-22 16:31:00,
2013-08-22 12:36:00,84.3,67.4,29.94,WSW,245,4.6,4.6,57,0.00,CLR,,0.00,867.0,WeatherDisplay:10.37,2013-08-22 16:36:00,
2013-08-22 12:41:00,84.3,68.9,29.93,West,280,12.0,12.0,60,0.00,FEW,,0.00,838.0,WeatherDisplay:10.37,2013-08-22 16:41:00,
2013-08-22 12:46:00,84.7,68.8,29.93,West,278,9.0,9.0,59,0.00,FEW,,0.00,896.0,WeatherDisplay:10.37,2013-08-22 16:46:00,
2013-08-22 12:51:00,84.9,66.9,29.93,SSW,212,6.0,6.0,55,0.00,CLR,,0.00,874.0,WeatherDisplay:10.37,2013-08-22 16:51:00,
2013-08-22 12:56:00,85.1,66.6,29.93,South,182,4.6,4.6,54,0.00,FEW,,0.00,336.0,WeatherDisplay:10.37,2013-08-22 16:56:00,
2013-08-22 13:01:00,84.5,68.1,29.93,SW,229,6.9,6.9,58,0.00,OVC,,0.00,292.0,WeatherDisplay:10.37,2013-08-22 17:01:00,
2013-08-22 13:06:00,84.1,67.7,29.93,WSW,253,8.1,8.1,58,0.00,BKN,,0.00,710.0,WeatherDisplay:10.37,2013-08-22 17:06:00,
2013-08-22 13:11:00,84.0,67.6,29.93,West,277,9.0,9.0,58,0.00,SCT,,0.00,596.0,WeatherDisplay:10.37,2013-08-22 17:11:00,
2013-08-22 13:16:00,84.0,68.1,29.93,WNW,286,5.0,5.0,59,0.00,OVC,,0.00,229.0,WeatherDisplay:10.37,2013-08-22 17:16:00,
2013-08-22 13:21:00,83.8,68.4,29.93,WNW,303,5.8,5.8,60,0.00,OVC,,0.00,283.0,WeatherDisplay:10.37,2013-08-22 17:21:00,
2013-08-22 13:26:00,83.6,68.7,29.92,West,273,3.5,3.5,61,0.00,BKN,,0.00,701.0,WeatherDisplay:10.37,2013-08-22 17:26:00,
2013-08-22 13:31:00,84.0,68.6,29.92,West,269,5.0,5.0,60,0.00,FEW,,0.00,710.0,WeatherDisplay:10.37,2013-08-22 17:31:00,
2013-08-22 13:36:00,84.3,67.9,29.92,WSW,241,5.0,5.0,58,0.00,FEW,,0.00,721.0,WeatherDisplay:10.37,2013-08-22 17:36:00,
2013-08-22 13:41:00,84.7,68.3,29.91,WSW,253,4.0,4.0,58,0.00,FEW,,0.00,661.0,WeatherDisplay:10.37,2013-08-22 17:41:00,
2013-08-22 13:46:00,84.7,68.3,29.91,WSW,246,4.0,4.0,58,0.00,BKN,,0.00,408.0,WeatherDisplay:10.37,2013-08-22 17:46:00,
2013-08-22 13:51:00,84.5,68.1,29.91,SW,221,4.0,4.0,58,0.00,FEW,,0.00,617.0,WeatherDisplay:10.37,2013-08-22 17:51:00,
2013-08-22 13:56:00,84.1,67.7,29.91,South,184,3.5,3.5,58,0.00,SCT,,0.00,677.0,WeatherDisplay:10.37,2013-08-22 17:56:00,
2013-08-22 14:01:00,84.3,70.8,29.91,SSW,192,7.0,7.0,64,0.00,FEW,,0.00,708.0,WeatherDisplay:10.37,2013-08-22 18:01:00,
2013-08-22 14:06:00,84.1,67.7,29.91,South,172,7.0,7.0,58,0.00,FEW,,0.00,740.0,WeatherDisplay:10.37,2013-08-22 18:06:00,
2013-08-22 14:11:00,84.0,68.6,29.91,WNW,286,3.5,3.5,60,0.00,FEW,,0.00,673.0,WeatherDisplay:10.37,2013-08-22 18:11:00,
2013-08-22 14:16:00,84.3,68.9,29.91,NNE,21,8.1,8.1,60,0.00,FEW,,0.00,722.0,WeatherDisplay:10.37,2013-08-22 18:16:00,
2013-08-22 14:21:00,84.3,67.9,29.91,WSW,245,11.5,11.5,58,0.00,CLR,,0.00,765.0,WeatherDisplay:10.37,2013-08-22 18:21:00,
2013-08-22 14:26:00,84.5,68.6,29.90,WSW,252,11.5,11.5,59,0.00,CLR,,0.00,726.0,WeatherDisplay:10.37,2013-08-22 18:26:00,
2013-08-22 14:31:00,84.7,67.8,29.90,SW,234,4.0,4.0,57,0.00,CLR,,0.00,775.0,WeatherDisplay:10.37,2013-08-22 18:31:00,
2013-08-22 14:36:00,84.9,68.5,29.90,WSW,245,5.0,5.0,58,0.00,CLR,,0.00,828.0,WeatherDisplay:10.37,2013-08-22 18:36:00,
2013-08-22 14:41:00,85.3,68.8,29.89,SE,130,5.0,5.0,58,0.00,CLR,,0.00,752.0,WeatherDisplay:10.37,2013-08-22 18:41:00,
2013-08-22 14:46:00,85.5,68.5,29.89,WSW,252,5.8,5.8,57,0.00,CLR,,0.00,715.0,WeatherDisplay:10.37,2013-08-22 18:46:00,
2013-08-22 14:51:00,85.1,67.1,29.89,South,191,6.0,6.0,55,0.00,BKN,,0.00,835.0,WeatherDisplay:10.37,2013-08-22 18:51:00,
2013-08-22 14:56:00,85.1,68.7,29.89,WSW,244,9.2,9.2,58,0.00,CLR,,0.00,773.0,WeatherDisplay:10.37,2013-08-22 18:56:00,
2013-08-22 15:01:00,85.3,65.7,29.89,South,179,5.8,5.8,52,0.00,CLR,,0.00,733.0,WeatherDisplay:10.37,2013-08-22 19:01:00,
2013-08-22 15:06:00,85.1,66.6,29.89,WSW,238,3.5,3.5,54,0.00,BKN,,0.00,288.0,WeatherDisplay:10.37,2013-08-22 19:06:00,
2013-08-22 15:11:00,84.7,66.7,29.88,SSW,211,5.0,5.0,55,0.00,BKN,,0.00,334.0,WeatherDisplay:10.37,2013-08-22 19:11:00,
2013-08-22 15:16:00,84.5,68.1,29.88,West,262,8.1,8.1,58,0.00,BKN,,0.00,689.0,WeatherDisplay:10.37,2013-08-22 19:16:00,
2013-08-22 15:21:00,84.5,68.6,29.88,WSW,258,11.0,11.0,59,0.00,BKN,,0.00,316.0,WeatherDisplay:10.37,2013-08-22 19:21:00,
2013-08-22 15:26:00,84.3,68.4,29.87,WNW,292,7.0,7.0,59,0.00,BKN,,0.00,290.0,WeatherDisplay:10.37,2013-08-22 19:26:00,
2013-08-22 15:31:00,84.7,69.8,29.87,West,279,9.0,9.0,61,0.00,FEW,,0.00,664.0,WeatherDisplay:10.37,2013-08-22 19:31:00,
2013-08-22 15:36:00,84.5,68.6,29.87,West,263,11.0,11.0,59,0.00,FEW,,0.00,596.0,WeatherDisplay:10.37,2013-08-22 19:36:00,
2013-08-22 15:41:00,84.7,69.3,29.87,NW,314,8.1,8.1,60,0.00,BKN,,0.00,299.0,WeatherDisplay:10.37,2013-08-22 19:41:00,
2013-08-22 15:46:00,84.5,67.6,29.87,NW,321,5.0,5.0,57,0.00,BKN,,0.00,304.0,WeatherDisplay:10.37,2013-08-22 19:46:00,
2013-08-22 15:51:00,83.6,68.7,29.87,NNW,327,17.3,17.3,61,0.00,BKN,,0.00,211.0,WeatherDisplay:10.37,2013-08-22 19:51:00,
2013-08-22 15:56:00,82.2,68.3,29.87,NNW,329,10.4,10.4,63,0.00,BKN,,0.00,260.0,WeatherDisplay:10.37,2013-08-22 19:56:00,
2013-08-22 16:01:00,81.4,69.8,29.87,NNW,344,8.1,8.1,68,0.00,BKN,,0.00,250.0,WeatherDisplay:10.37,2013-08-22 20:01:00,
2013-08-22 16:06:00,80.9,68.9,29.87,NW,307,10.4,10.4,67,0.00,BKN,,0.00,146.0,WeatherDisplay:10.37,2013-08-22 20:06:00,
2013-08-22 16:11:00,80.3,68.3,29.87,NW,318,9.2,9.2,67,0.00,OVC,,0.00,139.0,WeatherDisplay:10.37,2013-08-22 20:11:00,
2013-08-22 16:16:00,79.8,68.3,29.87,NNW,344,6.0,6.0,68,0.00,OVC,,0.00,62.0,WeatherDisplay:10.37,2013-08-22 20:16:00,
2013-08-22 16:21:00,79.0,67.1,29.87,WNW,296,13.8,13.8,67,0.00,OVC,,0.00,32.0,WeatherDisplay:10.37,2013-08-22 20:21:00,
2013-08-22 16:26:00,77.7,67.5,29.88,North,353,19.6,19.6,71,0.00,OVC,,0.00,16.0,WeatherDisplay:10.37,2013-08-22 20:26:00,
2013-08-22 16:31:00,76.0,68.6,29.88,WNW,284,19.6,19.6,78,0.08,RA,,0.08,14.0,WeatherDisplay:10.37,2013-08-22 20:31:00,
2013-08-22 16:36:00,74.2,67.3,29.88,NNW,327,10.4,10.4,79,0.26,RA,,0.28,32.0,WeatherDisplay:10.37,2013-08-22 20:36:00,
2013-08-22 16:41:00,73.0,67.5,29.89,NNW,330,7.0,7.0,83,0.33,RA,,0.33,56.0,WeatherDisplay:10.37,2013-08-22 20:41:00,
2013-08-22 16:46:00,72.5,67.7,29.89,NNW,330,0.0,0.0,85,0.33,RA,,0.33,63.0,WeatherDisplay:10.37,2013-08-22 20:46:00,
2013-08-22 16:51:00,72.0,67.9,29.89,NNW,330,0.0,0.0,87,0.33,RA,,0.33,63.0,WeatherDisplay:10.37,2013-08-22 20:51:00,
2013-08-22 16:56:00,71.8,68.4,29.88,NNW,330,0.0,0.0,89,0.35,RA,,0.35,76.0,WeatherDisplay:10.37,2013-08-22 20:56:00,
2013-08-22 17:01:00,71.8,68.7,29.88,NNW,330,0.0,0.0,90,0.35,RA,,0.35,72.0,WeatherDisplay:10.37,2013-08-22 21:01:00,
2013-08-22 17:06:00,71.8,68.7,29.88,NNW,330,0.0,0.0,90,0.35,RA,,0.35,95.0,WeatherDisplay:10.37,2013-08-22 21:06:00,
2013-08-22 17:11:00,71.8,69.0,29.88,NNW,330,0.0,0.0,91,0.35,OVC,,0.35,98.0,WeatherDisplay:10.37,2013-08-22 21:11:00,
2013-08-22 17:16:00,72.0,69.5,29.88,NNW,330,0.0,0.0,92,0.35,OVC,,0.35,67.0,WeatherDisplay:10.37,2013-08-22 21:16:00,
2013-08-22 17:21:00,72.1,69.6,29.88,NNW,329,4.0,4.0,92,0.35,OVC,,0.35,47.0,WeatherDisplay:10.37,2013-08-22 21:21:00,
2013-08-22 17:26:00,72.1,69.6,29.89,WSW,253,4.0,4.0,92,0.35,OVC,,0.35,32.0,WeatherDisplay:10.37,2013-08-22 21:26:00,
2013-08-22 17:31:00,72.0,69.5,29.89,WSW,256,5.0,5.0,92,0.29,OVC,,0.35,37.0,WeatherDisplay:10.37,2013-08-22 21:31:00,
2013-08-22 17:36:00,72.0,69.5,29.89,SW,219,6.0,6.0,92,0.07,OVC,,0.35,25.0,WeatherDisplay:10.37,2013-08-22 21:36:00,
2013-08-22 17:41:00,71.8,69.3,29.90,WSW,248,6.0,6.0,92,0.03,OVC,,0.35,12.0,WeatherDisplay:10.37,2013-08-22 21:41:00,
2013-08-22 17:46:00,71.5,69.1,29.90,SSE,155,13.0,13.0,92,0.02,OVC,,0.35,0.0,WeatherDisplay:10.37,2013-08-22 21:46:00,
2013-08-22 17:51:00,70.3,67.9,29.90,South,182,11.5,11.5,92,0.03,RA,,0.36,0.0,WeatherDisplay:10.37,2013-08-22 21:51:00,
2013-08-22 17:56:00,69.8,67.4,29.91,SSW,201,9.2,9.2,92,0.03,RA,,0.37,0.0,WeatherDisplay:10.37,2013-08-22 21:56:00,
2013-08-22 18:01:00,69.6,67.2,29.91,SW,225,0.0,0.0,92,0.03,RA,,0.38,0.0,WeatherDisplay:10.37,2013-08-22 22:01:00,
2013-08-22 18:06:00,69.6,67.5,29.91,WSW,247,1.0,0.0,93,0.03,RA,,0.39,5.0,WeatherDisplay:10.37,2013-08-22 22:06:00,
2013-08-22 18:11:00,69.4,67.3,29.91,WSW,253,0.0,0.0,93,0.05,RA,,0.40,7.0,WeatherDisplay:10.37,2013-08-22 22:11:00,
2013-08-22 18:16:00,69.4,67.3,29.91,WSW,256,1.2,1.2,93,0.08,RA,,0.45,12.0,WeatherDisplay:10.37,2013-08-22 22:16:00,
2013-08-22 18:21:00,69.4,67.3,29.91,WSW,240,1.0,1.0,93,0.12,RA,,0.47,16.0,WeatherDisplay:10.37,2013-08-22 22:21:00,
2013-08-22 18:26:00,69.6,67.5,29.91,SW,218,1.2,1.2,93,0.13,RA,,0.48,11.0,WeatherDisplay:10.37,2013-08-22 22:26:00,
2013-08-22 18:31:00,69.6,67.8,29.91,SW,225,0.0,0.0,94,0.14,RA,,0.49,11.0,WeatherDisplay:10.37,2013-08-22 22:31:00,
2013-08-22 18:36:00,69.8,68.0,29.91,SW,225,0.0,0.0,94,0.14,RA,,0.49,14.0,WeatherDisplay:10.37,2013-08-22 22:36:00,
2013-08-22 18:41:00,69.8,68.0,29.90,SW,225,1.2,0.0,94,0.15,RA,,0.50,19.0,WeatherDisplay:10.37,2013-08-22 22:41:00,
2013-08-22 18:46:00,69.8,68.0,29.90,SW,225,0.0,0.0,94,0.15,RA,,0.50,30.0,WeatherDisplay:10.37,2013-08-22 22:46:00,
2013-08-22 18:51:00,69.8,68.0,29.90,SW,225,0.0,0.0,94,0.14,FEW,,0.50,26.0,WeatherDisplay:10.37,2013-08-22 22:51:00,
2013-08-22 18:56:00,69.8,68.0,29.90,SW,225,0.0,0.0,94,0.13,OVC,,0.50,26.0,WeatherDisplay:10.37,2013-08-22 22:56:00,
2013-08-22 19:19:00,69.6,68.1,29.90,West,268,13.0,13.0,95,0.11,RA,,0.56,12.0,WeatherDisplay:10.37,2013-08-22 23:19:00,
2013-08-22 19:24:00,69.6,68.1,29.90,SSW,199,2.3,2.3,95,0.10,RA,,0.56,11.0,WeatherDisplay:10.37,2013-08-22 23:24:00,
2013-08-22 19:29:00,69.6,68.1,29.90,SSW,194,0.0,0.0,95,0.09,RA,,0.56,9.0,WeatherDisplay:10.37,2013-08-22 23:29:00,
2013-08-22 19:34:00,69.4,67.9,29.90,SW,221,3.5,0.0,95,0.08,CLR,,0.56,5.0,WeatherDisplay:10.37,2013-08-22 23:34:00,
2013-08-22 19:39:00,69.4,67.9,29.90,SW,222,1.2,0.0,95,0.08,CLR,,0.56,0.0,WeatherDisplay:10.37,2013-08-22 23:39:00,
2013-08-22 19:44:00,69.4,67.9,29.91,WSW,253,2.0,2.0,95,0.07,CLR,,0.56,0.0,WeatherDisplay:10.37,2013-08-22 23:44:00,
2013-08-22 19:49:00,69.3,67.8,29.91,West,259,4.0,4.0,95,0.07,CLR,,0.56,0.0,WeatherDisplay:10.37,2013-08-22 23:49:00,
2013-08-22 19:54:00,69.3,67.8,29.91,WSW,251,1.2,1.2,95,0.07,CLR,,0.56,0.0,WeatherDisplay:10.37,2013-08-22 23:54:00,
2013-08-22 19:59:00,69.3,67.8,29.91,WSW,251,0.0,0.0,95,0.07,CLR,,0.56,0.0,WeatherDisplay:10.37,2013-08-22 23:59:00,
2013-08-22 20:04:00,69.3,67.8,29.91,SW,235,5.8,5.8,95,0.05,CLR,,0.56,0.0,WeatherDisplay:10.37,2013-08-23 00:04:00,
2013-08-22 20:09:00,69.4,67.9,29.90,West,272,4.0,4.0,95,0.04,CLR,,0.56,0.0,WeatherDisplay:10.37,2013-08-23 00:09:00,
2013-08-22 20:14:00,69.4,67.9,29.90,West,274,3.5,3.5,95,0.03,CLR,,0.56,0.0,WeatherDisplay:10.37,2013-08-23 00:14:00,
2013-08-22 20:19:00,69.4,67.9,29.90,WNW,283,4.0,4.0,95,0.00,CLR,,0.56,0.0,WeatherDisplay:10.37,2013-08-23 00:19:00,
2013-08-22 20:24:00,69.4,67.9,29.91,West,277,5.8,5.8,95,0.00,CLR,,0.56,0.0,WeatherDisplay:10.37,2013-08-23 00:24:00,
2013-08-22 20:29:00,69.4,67.9,29.91,West,272,7.0,7.0,95,0.00,CLR,,0.56,0.0,WeatherDisplay:10.37,2013-08-23 00:29:00,
2013-08-22 20:34:00,69.4,67.9,29.91,West,267,4.6,4.6,95,0.00,CLR,,0.56,0.0,WeatherDisplay:10.37,2013-08-23 00:34:00,
2013-08-22 20:39:00,69.4,67.9,29.91,West,267,1.0,0.0,95,0.00,CLR,,0.56,0.0,WeatherDisplay:10.37,2013-08-23 00:39:00,
2013-08-22 20:44:00,69.4,67.9,29.91,West,268,5.0,5.0,95,0.00,CLR,,0.56,0.0,WeatherDisplay:10.37,2013-08-23 00:44:00,
2013-08-22 20:49:00,69.4,67.9,29.91,SSW,204,2.3,2.3,95,0.00,CLR,,0.56,0.0,WeatherDisplay:10.37,2013-08-23 00:49:00,
2013-08-22 20:54:00,69.4,67.9,29.92,West,274,1.2,0.0,95,0.00,CLR,,0.56,0.0,WeatherDisplay:10.37,2013-08-23 00:54:00,
2013-08-22 20:59:00,69.4,67.9,29.92,WSW,247,0.0,0.0,95,0.00,CLR,,0.56,0.0,WeatherDisplay:10.37,2013-08-23 00:59:00,
2013-08-22 21:04:00,69.4,67.9,29.92,West,260,4.0,4.0,95,0.00,CLR,,0.56,0.0,WeatherDisplay:10.37,2013-08-23 01:04:00,
2013-08-22 21:09:00,69.4,67.9,29.92,West,276,1.0,0.0,95,0.00,CLR,,0.56,0.0,WeatherDisplay:10.37,2013-08-23 01:09:00,
2013-08-22 21:14:00,69.4,67.9,29.92,West,266,1.2,1.2,95,0.00,CLR,,0.56,0.0,WeatherDisplay:10.37,2013-08-23 01:14:00,
2013-08-22 21:19:00,69.6,68.1,29.92,West,261,5.0,5.0,95,0.00,CLR,,0.56,0.0,WeatherDisplay:10.37,2013-08-23 01:19:00,
2013-08-22 21:24:00,69.4,67.9,29.92,West,260,0.0,0.0,95,0.00,CLR,,0.56,0.0,WeatherDisplay:10.37,2013-08-23 01:24:00,
2013-08-22 21:30:00,69.4,67.9,29.92,WSW,244,0.0,0.0,95,0.00,CLR,,0.56,0.0,WeatherDisplay:10.37,2013-08-23 01:30:00,
2013-08-22 21:35:00,69.4,68.2,29.92,WSW,253,3.5,3.5,96,0.00,CLR,,0.56,0.0,WeatherDisplay:10.37,2013-08-23 01:35:00,
2013-08-22 21:40:00,69.4,68.2,29.92,WSW,253,0.0,0.0,96,0.00,CLR,,0.56,0.0,WeatherDisplay:10.37,2013-08-23 01:40:00,
2013-08-22 21:45:00,69.4,68.2,29.92,SW,227,0.0,0.0,96,0.00,CLR,,0.56,0.0,WeatherDisplay:10.37,2013-08-23 01:45:00,
2013-08-22 21:50:00,69.3,68.1,29.92,West,267,4.0,4.0,96,0.00,CLR,,0.56,0.0,WeatherDisplay:10.37,2013-08-23 01:50:00,
2013-08-22 21:55:00,69.3,68.1,29.92,West,271,4.0,4.0,96,0.00,CLR,,0.56,0.0,WeatherDisplay:10.37,2013-08-23 01:55:00,
2013-08-22 22:00:00,69.4,68.2,29.92,West,271,4.0,4.0,96,0.00,CLR,,0.56,0.0,WeatherDisplay:10.37,2013-08-23 02:00:00,
2013-08-22 22:05:00,69.4,68.2,29.92,West,274,4.0,4.0,96,0.00,CLR,,0.56,0.0,WeatherDisplay:10.37,2013-08-23 02:05:00,
2013-08-22 22:10:00,69.4,68.2,29.92,West,278,3.5,0.0,96,0.00,CLR,,0.56,0.0,WeatherDisplay:10.37,2013-08-23 02:10:00,
2013-08-22 22:15:00,69.3,68.1,29.92,WNW,293,2.3,0.0,96,0.00,CLR,,0.56,0.0,WeatherDisplay:10.37,2013-08-23 02:15:00,
2013-08-22 22:20:00,69.1,67.9,29.92,WNW,282,0.0,0.0,96,0.00,CLR,,0.56,0.0,WeatherDisplay:10.37,2013-08-23 02:20:00,
2013-08-22 22:25:00,69.1,67.9,29.92,WNW,294,3.5,3.5,96,0.00,CLR,,0.56,0.0,WeatherDisplay:10.37,2013-08-23 02:25:00,
2013-08-22 22:30:00,69.1,67.9,29.92,West,281,4.0,4.0,96,0.00,CLR,,0.56,0.0,WeatherDisplay:10.37,2013-08-23 02:30:00,
2013-08-22 22:35:00,69.1,67.9,29.92,WNW,291,0.0,0.0,96,0.00,CLR,,0.56,0.0,WeatherDisplay:10.37,2013-08-23 02:35:00,
2013-08-22 22:40:00,69.1,67.9,29.93,WNW,291,0.0,0.0,96,0.00,CLR,,0.56,0.0,WeatherDisplay:10.37,2013-08-23 02:40:00,
2013-08-22 22:45:00,69.1,67.9,29.93,West,267,6.0,6.0,96,0.00,CLR,,0.56,0.0,WeatherDisplay:10.37,2013-08-23 02:45:00,
2013-08-22 22:50:00,69.1,67.9,29.93,WSW,240,1.2,1.2,96,0.00,CLR,,0.56,0.0,WeatherDisplay:10.37,2013-08-23 02:50:00,
2013-08-22 22:55:00,69.1,67.9,29.93,NW,312,1.2,1.2,96,0.00,CLR,,0.56,0.0,WeatherDisplay:10.37,2013-08-23 02:55:00,
2013-08-22 23:00:00,69.1,67.9,29.93,WNW,301,3.5,3.5,96,0.00,CLR,,0.56,0.0,WeatherDisplay:10.37,2013-08-23 03:00:00,
2013-08-22 23:05:00,69.3,68.1,29.93,North,354,3.5,3.5,96,0.00,CLR,,0.56,0.0,WeatherDisplay:10.37,2013-08-23 03:05:00,
2013-08-22 23:10:00,69.3,68.1,29.94,North,353,1.2,0.0,96,0.00,CLR,,0.56,0.0,WeatherDisplay:10.37,2013-08-23 03:10:00,
2013-08-22 23:15:00,69.3,68.1,29.94,WNW,290,5.0,5.0,96,0.00,CLR,,0.56,0.0,WeatherDisplay:10.37,2013-08-23 03:15:00,
2013-08-22 23:20:00,69.1,67.9,29.94,WNW,289,4.0,4.0,96,0.00,CLR,,0.56,0.0,WeatherDisplay:10.37,2013-08-23 03:20:00,
2013-08-22 23:25:00,68.9,67.7,29.94,WSW,252,3.5,3.5,96,0.00,CLR,,0.56,0.0,WeatherDisplay:10.37,2013-08-23 03:25:00,
2013-08-22 23:30:00,68.9,67.7,29.94,West,277,0.0,0.0,96,0.00,CLR,,0.56,0.0,WeatherDisplay:10.37,2013-08-23 03:30:00,
2013-08-22 23:35:00,68.6,67.4,29.94,West,277,0.0,0.0,96,0.00,CLR,,0.56,0.0,WeatherDisplay:10.37,2013-08-23 03:35:00,
2013-08-22 23:40:00,68.6,67.4,29.94,West,279,4.0,4.0,96,0.00,CLR,,0.56,0.0,WeatherDisplay:10.37,2013-08-23 03:40:00,
2013-08-22 23:45:00,68.4,67.2,29.94,West,270,3.5,3.5,96,0.00,CLR,,0.56,0.0,WeatherDisplay:10.37,2013-08-23 03:45:00,
2013-08-22 23:50:00,68.4,67.2,29.94,West,272,3.5,3.5,96,0.00,CLR,,0.56,0.0,WeatherDisplay:10.37,2013-08-23 03:50:00,
2013-08-22 23:55:00,68.3,67.1,29.94,West,270,2.3,2.3,96,0.00,CLR,,0.56,0.0,WeatherDisplay:10.37,2013-08-23 03:55:00,